Regional Weather Roundup
Issued by NWS Cleveland, OH

Home | Current Version | Previous Version | Graphics & Text | Print | Product List | Glossary On
Versions: 1 2 3 4 5 6 7 8 9 10 11 12 13 14 15 16 17 18 19 20 21 22 23 24 25 26 27 28 29 30 31 32 33 34 35 36 37 38 39 40 41 42 43 44 45 46 47 48 49 50
512
ASUS41 KCLE 281200
RWRCLE
OHIO REGIONAL WEATHER ROUNDUP
NATIONAL WEATHER SERVICE WILMINGTON, OH
800 AM EDT THU JUL 28 2016

NOTE: "FAIR" INDICATES FEW OR NO CLOUDS BELOW 12,000 FEET WITH NO
SIGNIFICANT WEATHER AND/OR OBSTRUCTIONS TO VISIBILITY.

OHZ001>008-015>018-024>027-034-035-043-044-281300-
   NORTHWEST OHIO

CITY           SKY/WX    TMP DP  RH WIND       PRES   REMARKS
DEFIANCE       PTSUNNY   71  65  81 NE3       29.93R
FINDLAY        FAIR      76  63  64 CALM      29.91S
TOLEDO EXPRESS FAIR      70  67  90 CALM      29.93R
TOLEDO EXEC    FAIR      73  69  87 CALM      29.93R
LIMA           FAIR      71  68  90 CALM      29.93R
$$

OHZ009>014-019>023-028>033-038-089-281300-
   NORTHEAST OHIO

CITY           SKY/WX    TMP DP  RH WIND       PRES   REMARKS
CLE-HOPKINS    PTSUNNY   72  62  71 CALM      29.95R
CLE-LAKEFRONT  FAIR      76  60  57 CALM      29.92R
CUY CO. ARPT   PTSUNNY  N/A N/A N/A CALM      29.92
LORAIN-ELYRIA  FAIR      68  63  84 CALM      29.93S
ASHTABULA      CLOUDY    68  65  90 E3        29.96R
AKRON-CANTON   PTSUNNY   73  63  70 SE3       29.94R
WOOSTER        NOT AVBL
MANSFIELD      PTSUNNY   74  62  66 CALM      29.95R
YOUNGSTOWN     CLOUDY    70  64  81 E5        29.94R
$$

OHZ042-051>053-060>062-070>072-077>081-281300-
  SOUTHWEST OHIO

CITY           SKY/WX    TMP DP  RH WIND       PRES   REMARKS
CINC-COVINGTON RAIN      72  72 100 SW3       29.95S FOG
CINC-LUNKEN    LGT RAIN  70  50  49 SW3       29.94R
HAMILTON       RAIN      73  71  93 CALM      29.94S FOG
DAYTON         NOT AVBL
WRIGHT-PAT AFB FAIR      73  72  95 S8        29.93R
DAYTON GENERAL RAIN      72  69  90 S8        29.94S FOG
WILMINGTON     RAIN      70  69  97 SW8       29.93F FOG
$$

OHZ036-037-039>041-045>050-054>059-063>069-073>076-082>088-281300-
  CENTRAL AND SOUTHEAST OHIO

CITY           SKY/WX    TMP DP  RH WIND       PRES   REMARKS
COLUMBUS       LGT RAIN  75  72  90 SW7       29.92R
OSU AIRPORT    CLOUDY    76  72  87 SW12      29.93R
BOLTON FIELD   NOT AVBL
RICKENBACK AFB NOT AVBL
NEWARK         LGT RAIN  72  69  90 CALM      29.93R
MARION         FAIR      73  65  75 CALM      29.93R
LANCASTER      RAIN      75  74  96 SW6       29.94R FOG
ZANESVILLE     LGT RAIN  77  72  84 S5        29.94R
NEW PHILLY     PTSUNNY   72  64  76 CALM      29.94R
$$




USA.gov is the U.S. government's official web portal to all federal, state and local government web resources and services.